FW5791 Weather Reports


Display with metric or nautical units.
time (UTC)temp
F
wind
direction
speed
MPH
gust
MPH
rain 1hr
in
rain 24hr
in
rain mn
in
humidity
%
barometer
mb
20221203233023 49 354 1.0 3.0 0.00 0.00 0.00 50 1030.8
20221203231524 49 351 1.0 4.0 0.00 0.00 0.00 48 1030.5
20221203230022 50 20 1.0 7.0 0.00 0.00 0.00 47 1030.6
20221203224524 51 337 1.0 7.0 0.00 0.00 0.00 45 1030.7
20221203223022 52 346 2.0 6.0 0.00 0.00 0.00 45 1030.4
20221203221532 52 343 1.0 8.0 0.00 0.00 0.00 44 1030.7
20221203220021 53 341 3.0 7.0 0.00 0.00 0.00 43 1030.7
20221203214520 53 353 3.0 8.0 0.00 0.00 0.00 42 1030.8
20221203213020 53 11 3.0 9.0 0.00 0.00 0.00 43 1031.1
20221203211519 53 1 4.0 9.0 0.00 0.00 0.00 43 1030.9
20221203210018 53 336 5.0 9.0 0.00 0.00 0.00 44 1031.1
20221203204517 53 360 4.0 10.0 0.00 0.00 0.00 46 1031.2
20221203203017 53 30 4.0 9.0 0.00 0.00 0.00 46 1031.1
20221203201517 53 345 4.0 10.0 0.00 0.00 0.00 47 1031.2
20221203200018 52 22 5.0 10.0 0.00 0.00 0.00 47 1031.7
20221203194523 52 339 4.0 9.0 0.00 0.00 0.00 47 1031.8
20221203193016 52 342 5.0 13.0 0.00 0.00 0.00 47 1031.8
20221203191515 52 341 3.0 11.0 0.00 0.00 0.00 48 1032.1
20221203190013 52 333 3.0 9.0 0.00 0.00 0.00 49 1032.3
20221203184513 51 359 2.0 10.0 0.00 0.00 0.00 48 1032.2
20221203183011 51 320 4.0 11.0 0.00 0.00 0.00 49 1032.4
20221203181513 50 356 4.0 9.0 0.00 0.00 0.00 50 1032.6
20221203180009 50 11 4.0 11.0 0.00 0.00 0.00 51 1032.8
20221203174507 49 353 5.0 10.0 0.00 0.00 0.00 52 1033.1
20221203173007 48 345 4.0 10.0 0.00 0.00 0.00 53 1033.4
20221203171506 48 22 6.0 13.0 0.00 0.00 0.00 53 1033.4
20221203170100 47 344 7.0 12.0 0.00 0.00 0.00 55 1033.5
20221203164601 47 334 6.0 11.0 0.00 0.00 0.00 55 1033.5
20221203163056 47 4 5.0 12.0 0.00 0.00 0.00 55 1033.2
20221203161555 46 9 6.0 13.0 0.00 0.00 0.00 56 1033.8
20221203160048 45 347 6.0 12.0 0.00 0.00 0.00 57 1033.5
20221203154545 45 356 5.0 13.0 0.00 0.00 0.00 58 1033.4
20221203153046 44 316 4.0 12.0 0.00 0.00 0.00 60 1033.2
20221203151537 43 25 4.0 13.0 0.00 0.00 0.00 62 1033.4
20221203150033 43 359 5.0 13.0 0.00 0.00 0.00 62 1033.3
20221203144535 42 4 3.0 10.0 0.00 0.00 0.00 65 1032.9
20221203143027 42 338 5.0 11.0 0.00 0.00 0.00 63 1032.7
20221203141527 42 336 5.0 9.0 0.00 0.00 0.00 65 1032.4
20221203140025 42 340 5.0 14.0 0.00 0.00 0.00 64 1032.1
20221203134519 42 3 4.0 10.0 0.00 0.00 0.00 66 1031.9
20221203133014 42 356 2.0 9.0 0.00 0.00 0.00 66 1031.6
20221203131510 43 6 1.0 6.0 0.00 0.00 0.00 65 1031.4
20221203130009 43 352 2.0 7.0 0.00 0.00 0.00 63 1030.9
20221203124503 44 349 3.0 10.0 0.00 0.00 0.00 61 1030.5
20221203123059 45 339 3.0 8.0 0.00 0.00 0.00 63 1030.4
20221203121600 45 352 3.0 8.0 0.00 0.00 0.00 63 1029.9
20221203120057 46 351 4.0 9.0 0.00 0.00 0.00 62 1029.7
20221203114549 46 359 4.0 8.0 0.00 0.00 0.00 62 1029.6
20221203113050 47 356 2.0 10.0 0.00 0.00 0.00 61 1028.9
20221203111543 47 8 3.0 8.0 0.00 0.00 0.00 65 1028.6
20221203110045 48 2 3.0 6.0 0.00 0.00 0.00 66 1028.2
20221203104536 49 14 2.0 11.0 0.00 0.00 0.00 64 1027.9
20221203103031 49 336 5.0 14.0 0.00 0.00 0.00 64 1027.5
20221203101531 49 3 4.0 9.0 0.00 0.00 0.00 66 1027.3
20221203100034 50 346 5.0 13.0 0.00 0.00 0.00 66 1026.9
20221203094520 51 359 5.0 10.0 0.00 0.00 0.00 66 1026.6
20221203093018 51 316 4.0 12.0 0.00 0.00 0.00 67 1026.5
20221203091520 52 357 4.0 11.0 0.00 0.00 0.00 68 1026.2
20221203090008 53 8 5.0 13.0 0.00 0.00 0.00 71 1025.5
20221203084508 53 316 6.0 11.0 0.00 0.00 0.00 76 1025.3
20221203083109 54 333 4.0 9.0 0.00 0.00 0.00 78 1024.9
20221203081605 55 326 4.0 11.0 0.00 0.00 0.00 79 1024.7
20221203080052 57 349 6.0 14.0 0.00 0.00 0.00 88 1024.3
20221203074557 60 335 4.0 7.0 0.00 0.00 0.00 97 1023.7
20221203073044 60 352 1.0 3.0 0.00 0.00 0.00 97 1023.1
20221203071548 61 344 2.0 5.0 0.00 0.00 0.00 97 1023.0
20221203070038 61 274 1.0 6.0 0.00 0.00 0.00 97 1022.3
20221203064545 61 215 1.0 5.0 0.00 0.00 0.00 97 1020.9
20221203063033 62 189 1.0 4.0 0.00 0.00 0.00 97 1020.6
20221203061533 62 177 1.0 7.0 0.00 0.00 0.00 97 1020.6
20221203060030 62 184 3.0 6.0 0.00 0.00 0.00 97 1020.6
20221203054530 62 214 3.0 7.0 0.00 0.00 0.00 97 1020.5
20221203053029 62 188 2.0 8.0 0.00 0.00 0.00 96 1020.0
20221203051528 62 191 2.0 7.0 0.00 0.00 0.00 96 1020.3
20221203050030 62 203 2.0 7.0 0.00 0.00 0.00 96 1020.1
20221203044531 63 225 3.0 9.0 0.00 0.00 0.00 96 1020.1
20221203043027 63 202 1.0 7.0 0.00 0.00 0.00 95 1020.0
20221203041545 63 186 3.0 12.0 0.00 0.00 0.00 95 1019.4
20221203040029 63 210 2.0 11.0 0.00 0.00 0.00 95 1019.5
20221203034526 64 139 4.0 10.0 0.00 0.00 0.00 95 1019.2
20221203033027 63 178 3.0 11.0 0.00 0.00 0.00 95 1019.0
20221203031525 63 234 3.0 12.0 0.00 0.00 0.00 95 1018.8
20221203030024 63 215 2.0 7.0 0.00 0.00 0.00 95 1018.7
20221203024537 63 217 4.0 9.0 0.00 0.00 0.00 95 1018.2
20221203023024 63 176 4.0 10.0 0.00 0.00 0.00 95 1018.2
20221203021525 62 195 4.0 10.0 0.00 0.00 0.00 95 1018.1
20221203020026 62 211 4.0 11.0 0.00 0.01 0.00 96 1017.9
20221203014521 61 177 4.0 10.0 0.00 0.01 0.00 95 1017.8
20221203013021 61 184 3.0 8.0 0.00 0.01 0.00 95 1017.6
20221203011520 61 221 3.0 6.0 0.00 0.01 0.00 95 1017.5
20221203010019 60 186 2.0 7.0 0.00 0.01 0.00 95 1017.5
20221203004519 60 190 2.0 6.0 0.00 0.01 0.00 94 1017.4
20221203003019 60 186 1.0 3.0 0.00 0.01 0.00 93 1017.5
20221203001518 61 193 1.0 4.0 0.00 0.01 0.00 91 1017.1
20221203000018 62 195 2.0 7.0 0.00 0.01 0.00 91 1017.1
20221202234534 62 185 2.0 8.0 0.00 0.01 0.00 91 1016.9